Temperature
17 17 17 17 17 17 17 17 17 17 17 17 17 17 17 18 18 18 18 18 18 18 18 18 18 18 18 18 18 18 18 18 18 18 18 18 18 18 18 18 18 18 18
17 17 17 17 17 17 17 17 17 17 17 17 17 17 17 17 18 18 18 18 18 18 18 18 18 18 18 18 18 18 18 18 18 18 18 18 18 18 18 18 18 18 18
17 17 17 17 17 17 17 17 17 17 17 17 17 17 17 17 17 17 18 18 18 17 18 18 18 18 18 18 18 18 18 18 18 18 18 18 18 18 18 18 18 18 18
17 17 17 17 17 17 17 17 17 17 17 17 17 17 17 17 17 17 17 17 17 17 17 17 17 17 17 18 18 18 18 18 18 18 18 18 18 17 18 18 18 18 18
17 17 17 17 17 17 17 17 17 17 17 17 17 17 17 17 17 17 17 17 17 17 17 17 17 17 17 17 17 17 17 17 17 17 17 17 17 17 17 17 17 17 17
17 17 17 17 17 17 17 17 16 16 16 17 17 17 17 17 17 17 17 17 17 17 17 17 17 17 17 17 17 17 17 17 17 17 17 17 17 17 17 17 17 17 17
17 17 17 16 16 16 16 16 16 16 16 16 17 16 16 16 16 16 16 16 16 16 16 17 17 17 17 17 17 17 17 17 17 17 17 17 17 17 17 17 17 17 17
17 17 17 16 16 16 16 16 16 16 16 16 16 16 16 16 16 16 16 16 16 16 16 16 16 16 16 16 16 16 16 16 16 16 16 16 17 17 17 17 17 17 17
17 17 16 16 16 16 16 16 16 16 16 16 16 16 16 16 16 16 16 16 16 16 16 16 16 16 16 16 16 16 16 16 16 16 16 16 16 16 16 16 16 16 16
17 16 16 16 16 16 16 16 16 16 16 16 16 16 16 16 16 16 16 16 16 16 16 16 16 16 16 16 16 16 16 16 16 16 16 16 16 16 16 16 16 16 16
17 16 16 16 16 16 16 16 16 16 16 16 16 16 16 16 16 16 16 16 16 16 16 16 16 16 16 16 16 16 16 16 16 16 16 16 16 16 16 16 16 16 16
17 16 16 16 16 16 16 16 16 16 16 16 16 16 16 16 16 15 15 15 16 16 16 16 16 16 16 16 16 16 16 16 15 15 15 15 16 15 15 16 16 16 16
17 17 16 16 16 16 16 16 16 16 16 16 16 16 15 15 15 15 15 15 15 16 16 16 15 15 16 15 15 15 15 15 15 15 15 15 15 15 15 15 15 15 15
17 17 17 16 16 16 16 16 16 16 16 16 15 15 15 15 15 15 15 15 15 15 15 15 15 15 15 15 15 15 15 15 15 15 15 15 15 15 15 15 15 15 15
17 17 17 16 16 16 16 16 16 16 16 15 15 15 15 15 15 15 15 15 15 15 15 15 15 15 15 15 15 15 15 15 15 15 15 15 15 15 15 15 15 15 15
17 17 17 16 16 16 16 16 16 15 15 15 15 15 15 15 15 15 15 15 15 15 15 15 15 15 15 15 15 15 15 15 15 15 15 15 15 15 15 15 15 15 15
17 17 17 16 16 16 16 16 16 15 15 15 15 15 15 15 15 15 15 15 15 15 15 15 15 15 15 15 15 15 15 15 14 14 15 14 14 14 14 14 14 14 14
17 17 17 16 16 16 16 16 16 15 15 15 15 15 15 15 15 15 15 15 15 15 15 15 15 15 15 15 14 14 14 14 14 14 14 14 14 14 14 14 14 14 14
17 17 17 16 16 16 16 16 15 15 15 15 15 15 15 15 15 15 15 15 15 15 15 15 15 15 15 14 14 14 14 14 14 14 14 14 14 14 14 14 14 14 14
17 17 17 17 16 16 16 16 15 15 15 15 15 15 15 15 15 15 15 15 15 15 15 15 15 14 14 14 14 14 14 14 14 14 14 14 14 14 14 14 14 14 14
17 17 17 17 16 16 16 16 16 15 15 15 15 15 15 15 15 15 14 14 14 15 14 14 14 14 14 14 14 14 14 14 14 14 14 13 14 14 14 14 14 14 14
17 17 17 17 16 16 16 16 15 15 15 15 15 15 15 15 15 15 14 14 14 14 14 14 14 14 14 14 14 14 13 13 13 13 13 13 13 13 13 13 13 13 13
17 17 17 17 16 16 16 16 15 15 15 15 15 15 15 15 15 15 14 14 14 14 14 14 14 14 14 14 14 14 14 13 13 13 13 13 13 13 13 13 13 13 13
17 17 17 17 16 16 16 16 16 15 15 15 15 15 15 15 15 15 14 14 14 14 14 14 14 14 14 14 14 14 14 14 13 13 13 13 13 13 13 13 13 13 13
17 17 17 17 16 16 16 16 16 15 15 15 15 15 15 15 14 14 14 14 14 14 14 14 14 14 14 14 14 14 14 14 13 13 13 13 13 13 13 13 12 12 12
17 17 17 16 16 16 16 16 16 15 15 15 15 15 15 15 15 14 14 14 14 14 14 14 14 14 14 14 14 14 14 13 13 13 13 13 13 13 13 13 12 12 12
Wind_Speed
3 4 4 5 6 6 6 6 7 8 8 9 9 10 10 11 11 11 11 11 11 11 11 11 11 12 12 12 11 11 11 11 11 11 11 10 10 10 11 11 10 9 11
2 3 3 5 6 7 7 7 7 8 8 9 9 10 10 10 10 11 11 11 11 11 12 11 11 11 12 12 12 12 12 12 12 11 11 10 10 10 11 10 10 9 10
1 2 3 5 6 7 8 8 8 8 9 9 9 9 10 10 10 11 11 11 11 11 11 12 11 12 12 12 12 13 13 13 12 12 11 8 8 10 10 10 10 10 10
1 2 3 4 6 7 7 7 8 8 9 9 9 9 9 9 10 10 11 10 11 11 11 12 12 12 12 12 12 12 13 13 13 12 9 8 8 10 10 10 10 10 10
2 2 2 4 5 6 7 7 8 8 8 8 8 8 9 9 9 10 11 10 11 11 11 12 12 12 12 12 12 12 13 13 13 12 10 9 9 10 11 10 10 10 9
2 2 2 4 5 6 7 7 7 7 8 8 8 8 8 9 9 10 11 11 11 11 12 12 12 12 12 11 11 12 13 13 12 11 10 10 9 11 11 11 11 11 10
1 2 3 4 5 5 6 7 7 7 8 8 8 8 8 9 9 10 10 10 11 11 12 12 13 13 12 11 11 13 13 13 11 10 10 10 10 12 12 11 11 11 11
1 2 3 4 5 5 5 6 7 7 7 7 8 8 8 9 9 10 10 10 10 11 12 12 13 14 14 14 14 14 13 12 10 9 9 9 11 12 11 11 11 11 11
2 3 4 4 5 5 5 6 7 7 7 6 6 7 7 8 9 9 9 10 10 11 11 12 13 14 14 14 14 13 13 13 10 8 9 9 11 11 11 11 11 11 11
2 3 3 4 5 5 5 6 6 7 7 7 7 7 7 8 8 8 8 9 10 11 11 12 12 13 14 14 13 13 12 11 10 9 8 9 11 11 11 11 11 11 10
1 2 2 3 4 4 4 5 6 7 7 8 7 8 8 7 7 7 8 9 10 11 11 11 12 13 13 13 13 13 11 9 9 8 8 10 10 10 10 11 11 10 10
1 1 1 1 2 3 3 5 6 6 7 7 7 7 7 7 7 8 9 10 11 11 11 12 12 12 11 10 10 11 9 10 9 7 9 10 10 10 11 11 10 10 10
2 1 0 0 1 2 2 3 4 5 6 6 7 7 7 7 7 8 8 8 9 9 9 10 11 10 9 8 8 8 9 9 8 8 10 11 11 11 11 11 10 10 10
2 2 1 1 1 1 2 2 3 3 3 4 5 5 5 4 4 5 5 6 7 7 7 8 8 9 9 9 9 8 9 8 9 9 9 11 11 11 10 10 10 10 10
3 2 1 2 2 2 2 1 2 2 2 3 4 4 5 4 3 4 4 5 6 7 7 6 7 7 7 7 8 8 8 9 9 10 9 11 11 10 9 9 9 9 9
3 2 2 2 2 3 2 1 2 2 3 3 3 3 4 5 4 4 4 4 5 6 6 6 6 6 6 6 6 7 8 8 9 9 9 10 11 10 10 9 9 9 10
3 2 3 3 3 3 2 2 2 2 4 3 3 3 4 5 5 5 3 3 4 6 7 7 7 6 5 5 6 6 7 8 8 9 9 9 9 10 11 10 10 10 11
3 3 2 3 4 3 2 2 2 3 4 3 3 3 4 5 6 5 4 3 5 6 6 4 4 5 5 4 4 4 5 6 8 8 9 9 9 9 9 10 11 10 10
4 4 3 3 4 3 3 3 3 4 4 3 3 3 4 6 6 6 4 4 6 5 4 4 4 4 4 4 4 5 5 5 5 6 7 8 9 9 9 10 10 10 9
4 4 4 4 3 3 3 3 3 3 3 3 3 3 4 5 6 6 5 5 5 4 4 4 5 4 3 4 5 5 5 4 4 5 5 6 8 8 9 9 9 9 10
4 4 4 4 3 3 2 2 2 1 1 2 2 3 4 5 5 5 4 4 4 4 4 4 4 4 3 2 4 3 4 5 5 4 4 4 5 7 8 8 8 8 8
4 4 4 4 4 3 2 2 1 1 1 1 1 3 4 4 4 4 4 3 3 4 4 3 3 3 2 2 2 2 2 3 4 4 3 3 3 4 5 6 7 7 7
4 5 5 4 4 3 3 3 3 3 3 2 2 2 2 3 3 4 4 4 3 3 3 2 3 3 2 2 2 3 3 1 1 3 4 4 3 3 3 4 5 5 6
5 4 4 4 4 3 4 4 4 2 1 1 0 0 1 2 3 3 4 4 3 3 2 2 2 2 3 2 1 2 2 3 2 0 3 3 3 3 3 3 4 4 5
5 5 4 4 3 3 4 5 4 3 2 1 1 1 1 2 2 3 3 3 3 2 2 2 2 2 2 2 2 1 2 2 2 2 0 2 3 2 2 2 3 3 3
4 4 4 4 4 3 4 4 5 5 3 3 2 1 1 1 1 2 3 3 3 2 2 2 2 3 2 2 2 2 2 2 2 2 2 0 1 2 2 2 2 2 3
Wind_Direction
301 310 340 20 33 40 45 57 68 69 69 72 77 77 77 76 76 73 74 76 78 80 79 82 83 87 90 92 95 97 94 93 93 92 94 99 98 96 97 98 98 101 104
281 330 10 34 42 46 49 58 68 70 68 71 77 77 76 77 77 77 77 76 76 78 78 81 85 86 88 91 93 93 93 93 91 89 88 91 97 96 96 99 101 103 104
15 7 13 43 51 51 54 60 66 67 68 70 75 75 74 74 74 75 75 74 76 78 80 82 85 86 88 88 90 90 89 89 89 87 81 73 88 95 94 97 101 102 102
54 23 14 50 57 58 59 65 68 69 70 71 75 75 75 74 74 75 73 71 75 76 78 80 85 85 87 88 89 90 89 88 87 83 71 70 80 91 93 93 98 101 101
50 24 9 58 65 64 62 65 68 71 70 70 73 76 75 75 75 77 77 73 73 74 75 78 83 83 84 87 90 91 92 91 86 75 67 69 77 88 89 88 91 95 95
46 26 25 71 71 69 63 65 69 69 67 67 69 75 77 77 77 75 77 76 75 74 74 76 80 81 82 86 93 94 92 91 81 71 66 69 78 87 88 84 84 86 88
51 30 33 65 69 69 67 66 67 67 65 64 66 72 76 76 77 77 75 74 74 74 74 74 75 79 80 81 92 96 92 88 79 72 67 68 77 83 85 85 83 84 86
76 44 40 48 57 61 63 63 62 62 62 63 65 68 72 76 75 76 75 73 73 74 74 74 72 74 76 78 88 93 91 87 79 75 70 69 80 81 81 81 80 81 82
72 55 32 27 33 40 46 58 58 55 55 59 65 67 72 75 73 71 71 73 74 75 76 76 74 73 74 76 83 87 88 83 72 69 74 72 82 83 80 79 78 78 79
62 50 32 26 27 28 29 43 52 53 53 55 61 68 71 68 66 64 61 70 75 77 79 78 76 74 73 76 77 80 81 75 65 64 66 76 82 83 83 82 79 75 75
67 25 28 27 22 23 29 41 46 47 45 47 52 63 63 56 53 54 59 70 75 79 80 81 80 75 74 73 72 73 70 63 61 57 66 77 79 81 84 84 81 78 75
209 268 24 27 14 20 28 44 44 45 46 48 52 57 61 58 54 58 58 67 73 77 77 76 76 73 71 67 67 68 64 60 57 53 70 79 79 79 83 84 83 79 74
205 207 175 179 39 39 36 54 51 52 52 51 57 64 67 62 56 54 52 51 58 66 70 71 69 68 71 71 69 66 62 58 54 55 67 76 79 81 80 79 81 79 74
171 203 185 135 104 73 67 65 64 60 54 50 56 71 77 69 60 58 56 53 59 68 74 75 74 71 71 71 71 68 63 59 55 53 60 70 73 75 77 77 77 76 75
177 186 174 143 137 121 86 69 74 70 71 64 63 74 89 87 76 71 67 65 66 74 78 80 78 75 70 69 70 70 63 57 55 53 50 60 65 67 68 71 74 74 76
187 180 162 146 145 122 104 86 77 68 76 78 74 77 94 101 99 91 78 74 71 77 84 85 84 81 72 69 65 65 64 58 54 53 48 48 52 57 60 63 68 70 74
184 169 155 145 123 116 109 91 76 71 84 78 72 82 97 104 105 103 91 78 80 89 92 90 81 80 76 68 59 58 59 56 53 50 49 47 46 49 53 58 65 69 70
159 146 147 136 116 107 103 89 73 75 83 79 74 81 95 104 110 106 97 88 96 96 95 91 85 81 73 69 62 51 51 51 48 49 50 47 46 45 47 55 62 66 67
166 154 136 118 119 112 97 79 71 72 71 68 70 78 95 101 107 106 100 98 101 95 88 97 81 89 89 79 72 56 44 45 42 49 48 46 46 49 50 50 54 57 62
157 149 136 123 114 100 82 71 60 56 49 52 59 75 94 101 106 104 101 100 103 94 83 87 90 78 85 87 80 62 46 44 44 43 43 45 46 49 50 50 48 45 50
145 143 143 136 129 115 97 94 86 64 32 28 37 73 89 100 109 106 104 97 98 101 107 108 103 91 73 82 82 57 35 41 41 32 41 45 43 46 51 50 47 44 40
165 165 162 162 154 153 146 138 128 118 88 25 23 58 83 101 117 120 114 111 107 106 104 106 109 101 72 59 103 95 41 16 18 24 27 37 33 43 49 48 50 46 42
176 182 179 176 169 164 140 112 85 62 45 33 24 24 38 87 108 123 124 121 119 122 132 132 123 122 126 54 68 123 129 181 342 357 19 31 38 42 40 46 47 44 45
191 184 176 172 166 163 147 142 141 143 153 206 213 8 35 78 101 121 132 133 128 128 134 144 121 120 128 124 67 60 111 143 139 12 359 18 35 41 35 45 43 42 46
181 174 172 166 168 163 156 159 153 152 166 151 103 88 56 51 83 115 136 139 135 135 138 127 111 110 113 131 136 127 93 75 94 137 327 354 21 27 33 40 42 38 39
165 163 163 165 178 171 160 162 163 164 158 141 131 123 78 49 52 100 131 134 138 137 140 140 126 115 113 117 123 129 141 143 158 142 148 121 10 3 30 32 33 26 28
Height
1522 1520 1519 1519 1518 1517 1516 1516 1515 1515 1515 1514 1514 1514 1514 1514 1513 1513 1513 1513 1513 1513 1513 1513 1513 1513 1513 1514 1514 1515 1515 1516 1516 1517 1518 1519 1520 1521 1521 1522 1523 1524 1525
1522 1521 1520 1520 1519 1518 1517 1517 1516 1516 1516 1516 1515 1515 1515 1515 1515 1515 1515 1515 1515 1514 1514 1514 1514 1515 1515 1515 1516 1516 1517 1517 1518 1519 1520 1521 1521 1522 1523 1524 1524 1525 1526
1523 1522 1521 1520 1520 1519 1519 1518 1518 1517 1517 1517 1517 1517 1517 1517 1517 1517 1517 1516 1516 1516 1516 1516 1516 1516 1516 1517 1517 1517 1518 1519 1520 1520 1521 1522 1523 1524 1524 1525 1526 1526 1527
1524 1523 1522 1522 1521 1520 1520 1520 1519 1519 1519 1518 1518 1518 1518 1518 1518 1518 1518 1518 1518 1518 1518 1518 1518 1518 1518 1518 1518 1519 1519 1520 1521 1522 1522 1523 1524 1525 1526 1526 1527 1528 1528
1525 1524 1523 1523 1522 1522 1521 1521 1521 1521 1520 1520 1520 1520 1520 1520 1520 1520 1519 1519 1519 1519 1519 1519 1519 1519 1519 1519 1519 1520 1521 1522 1522 1523 1524 1525 1525 1526 1527 1528 1528 1529 1529
1526 1525 1524 1524 1523 1523 1523 1522 1522 1522 1522 1522 1521 1521 1521 1521 1521 1521 1521 1521 1521 1521 1521 1521 1521 1520 1520 1520 1520 1521 1522 1523 1524 1525 1525 1526 1527 1528 1528 1529 1529 1530 1530
1527 1526 1526 1525 1525 1524 1524 1524 1524 1524 1524 1523 1523 1523 1523 1523 1523 1523 1522 1522 1522 1522 1522 1523 1522 1522 1521 1519 1519 1521 1523 1524 1526 1526 1527 1528 1529 1529 1529 1530 1531 1531 1531
1528 1528 1527 1527 1526 1526 1526 1525 1525 1525 1525 1525 1525 1525 1525 1524 1524 1524 1524 1524 1524 1524 1524 1524 1524 1523 1522 1520 1519 1522 1525 1526 1527 1528 1529 1529 1530 1530 1531 1531 1532 1532 1533
1530 1529 1529 1528 1528 1528 1527 1527 1527 1527 1527 1526 1526 1526 1526 1526 1526 1526 1526 1526 1526 1525 1525 1526 1526 1526 1525 1524 1524 1525 1527 1528 1529 1529 1530 1530 1531 1531 1532 1532 1533 1533 1534
1531 1531 1530 1530 1529 1529 1529 1529 1528 1528 1528 1528 1528 1528 1528 1528 1528 1528 1528 1527 1527 1527 1527 1527 1527 1528 1527 1527 1528 1528 1529 1530 1530 1531 1531 1532 1532 1533 1533 1533 1534 1534 1535
1532 1532 1532 1531 1531 1531 1530 1530 1530 1530 1529 1529 1529 1529 1529 1529 1529 1529 1529 1529 1529 1529 1529 1529 1529 1530 1530 1530 1530 1530 1531 1531 1531 1532 1533 1533 1533 1534 1534 1534 1535 1535 1536
1532 1533 1532 1532 1532 1532 1532 1532 1531 1531 1531 1531 1531 1531 1531 1531 1531 1531 1530 1531 1531 1531 1531 1531 1531 1531 1532 1532 1532 1532 1533 1533 1533 1534 1534 1534 1535 1535 1535 1536 1536 1536 1536
1533 1533 1533 1533 1533 1533 1533 1533 1533 1532 1532 1532 1532 1532 1532 1532 1532 1532 1532 1533 1533 1533 1533 1533 1533 1533 1533 1534 1534 1534 1534 1535 1535 1535 1536 1536 1536 1537 1537 1537 1537 1537 1537
1534 1534 1534 1534 1534 1534 1534 1534 1534 1534 1534 1534 1534 1534 1534 1534 1534 1534 1534 1534 1535 1535 1535 1535 1535 1535 1535 1536 1536 1536 1536 1537 1537 1537 1537 1538 1538 1538 1538 1538 1538 1538 1538
1534 1534 1535 1535 1535 1535 1535 1535 1535 1535 1535 1535 1535 1535 1535 1536 1536 1536 1536 1536 1536 1536 1537 1537 1537 1537 1537 1537 1537 1538 1538 1538 1539 1539 1539 1539 1539 1539 1539 1539 1539 1539 1539
1534 1535 1535 1536 1536 1536 1536 1536 1536 1536 1536 1536 1536 1537 1537 1537 1537 1537 1537 1537 1538 1538 1538 1538 1538 1538 1539 1539 1539 1539 1540 1540 1540 1540 1540 1540 1540 1540 1540 1540 1540 1540 1540
1534 1535 1536 1536 1537 1537 1537 1537 1537 1537 1537 1537 1538 1538 1538 1538 1538 1538 1539 1539 1539 1539 1539 1540 1540 1540 1540 1540 1540 1541 1541 1541 1542 1542 1542 1542 1541 1541 1542 1541 1541 1541 1541
1535 1535 1536 1537 1537 1538 1538 1538 1539 1539 1539 1539 1539 1539 1539 1539 1539 1539 1540 1540 1540 1540 1541 1541 1541 1541 1541 1542 1542 1542 1542 1543 1543 1543 1543 1543 1543 1542 1542 1542 1542 1542 1542
1535 1536 1536 1537 1538 1538 1539 1539 1540 1540 1540 1540 1540 1540 1540 1540 1540 1540 1541 1541 1541 1541 1542 1542 1542 1542 1542 1543 1543 1543 1543 1544 1544 1544 1544 1544 1544 1543 1543 1543 1543 1543 1543
1535 1536 1537 1537 1538 1539 1539 1540 1540 1541 1541 1541 1541 1541 1541 1541 1541 1541 1541 1542 1542 1543 1543 1543 1543 1543 1544 1544 1544 1544 1545 1545 1545 1545 1545 1545 1545 1544 1544 1544 1544 1544 1543
1535 1536 1537 1537 1538 1539 1539 1540 1540 1541 1541 1542 1542 1542 1542 1542 1542 1542 1542 1543 1543 1544 1544 1544 1544 1544 1544 1545 1545 1545 1546 1546 1546 1546 1545 1545 1545 1545 1545 1544 1544 1544 1544
1533 1535 1536 1537 1538 1539 1539 1540 1541 1541 1542 1542 1542 1543 1543 1543 1543 1543 1543 1544 1544 1544 1544 1545 1545 1545 1545 1545 1545 1545 1546 1547 1546 1546 1545 1545 1545 1545 1545 1545 1545 1545 1545
1532 1534 1535 1536 1537 1538 1539 1540 1541 1541 1542 1542 1543 1543 1543 1543 1543 1544 1544 1544 1545 1545 1545 1545 1546 1545 1545 1546 1546 1546 1546 1546 1547 1547 1545 1545 1545 1545 1545 1545 1545 1545 1545
1531 1533 1535 1536 1537 1538 1539 1539 1540 1541 1542 1542 1543 1543 1544 1544 1544 1544 1544 1545 1545 1546 1546 1546 1546 1546 1546 1546 1546 1546 1547 1547 1547 1546 1546 1545 1545 1545 1545 1546 1546 1546 1546
1529 1531 1533 1535 1536 1537 1538 1539 1540 1541 1542 1543 1543 1544 1544 1544 1544 1545 1545 1545 1545 1546 1546 1546 1546 1547 1547 1547 1547 1547 1546 1547 1546 1546 1546 1546 1545 1546 1546 1546 1546 1546 1546
1528 1530 1532 1534 1535 1536 1538 1538 1540 1540 1541 1542 1543 1543 1544 1544 1545 1545 1545 1545 1546 1546 1546 1547 1547 1547 1547 1547 1547 1547 1546 1546 1546 1546 1546 1545 1545 1546 1546 1546 1546 1546 1546